Time,TemperatureF,DewpointF,PressureIn,WindDirection,WindDirectionDegrees,WindSpeedMPH,WindSpeedGustMPH,Humidity,HourlyPrecipIn,Conditions,Clouds,dailyrainin,SoftwareType,DateUTC
2013-10-16 00:00:00,54.1,47.1,30.10,NE,36,0.0,6.0,77,0.00,,,0.00,VWS V14.01,2013-10-16 05:00:00,
2013-10-16 00:02:00,54.1,47.1,30.10,NE,36,0.0,6.0,77,0.00,,,0.12,VWS V14.01,2013-10-16 05:02:00,
2013-10-16 00:07:00,54.0,46.6,30.10,NNW,334,0.0,4.0,76,0.00,,,0.00,VWS V14.01,2013-10-16 05:07:00,
2013-10-16 00:12:00,54.0,47.0,30.10,NNW,334,0.0,4.0,77,0.00,,,0.00,VWS V14.01,2013-10-16 05:12:00,
2013-10-16 00:17:00,54.0,47.0,30.10,NNW,335,0.0,4.0,77,0.00,,,0.00,VWS V14.01,2013-10-16 05:17:00,
2013-10-16 00:22:00,54.0,46.6,30.10,North,349,0.0,4.0,76,0.00,,,0.00,VWS V14.01,2013-10-16 05:22:00,
2013-10-16 00:27:00,53.9,46.5,30.10,North,349,0.0,4.0,76,0.00,,,0.00,VWS V14.01,2013-10-16 05:27:00,
2013-10-16 00:30:00,53.9,46.5,30.10,North,349,0.0,4.0,76,0.00,,,0.00,VWS V14.01,2013-10-16 05:30:00,
2013-10-16 00:32:00,53.9,46.5,30.10,North,349,0.0,4.0,76,0.00,,,0.00,VWS V14.01,2013-10-16 05:32:00,
2013-10-16 00:37:00,53.8,46.4,30.10,North,349,0.0,1.0,76,0.00,,,0.00,VWS V14.01,2013-10-16 05:37:00,
2013-10-16 00:42:00,53.8,46.4,30.10,NNE,13,0.0,4.0,76,0.00,,,0.00,VWS V14.01,2013-10-16 05:42:00,
2013-10-16 00:47:00,53.8,46.1,30.10,NE,42,0.0,7.0,75,0.00,,,0.00,VWS V14.01,2013-10-16 05:47:00,
2013-10-16 00:52:00,53.8,45.4,30.11,NE,38,0.0,8.0,73,0.00,,,0.00,VWS V14.01,2013-10-16 05:52:00,
2013-10-16 00:57:00,53.9,45.1,30.10,NNE,29,1.0,8.0,72,0.00,,,0.00,VWS V14.01,2013-10-16 05:57:00,
2013-10-16 01:00:00,54.1,44.9,30.10,North,360,0.0,8.0,71,0.00,,,0.00,VWS V14.01,2013-10-16 06:00:00,
2013-10-16 01:02:00,54.1,44.9,30.10,North,360,3.0,8.0,71,0.00,,,0.00,VWS V14.01,2013-10-16 06:02:00,
2013-10-16 01:07:00,54.2,44.6,30.10,NNW,336,1.0,8.0,70,0.00,,,0.00,VWS V14.01,2013-10-16 06:07:00,
2013-10-16 01:12:00,54.3,44.7,30.10,NE,44,5.0,8.0,70,0.00,,,0.00,VWS V14.01,2013-10-16 06:12:00,
2013-10-16 01:17:00,54.4,44.5,30.11,North,349,4.0,8.0,69,0.00,,,0.00,VWS V14.01,2013-10-16 06:17:00,
2013-10-16 01:22:00,54.3,44.4,30.11,NNE,24,0.0,9.0,69,0.00,,,0.00,VWS V14.01,2013-10-16 06:22:00,
2013-10-16 01:27:00,54.3,44.4,30.11,NNE,13,5.0,14.0,69,0.00,,,0.00,VWS V14.01,2013-10-16 06:27:00,
2013-10-16 01:30:00,54.2,44.3,30.11,ENE,63,2.0,14.0,69,0.00,,,0.00,VWS V14.01,2013-10-16 06:30:00,
2013-10-16 01:32:00,54.2,44.3,30.11,North,5,1.0,14.0,69,0.00,,,0.00,VWS V14.01,2013-10-16 06:32:00,
2013-10-16 01:37:00,54.1,44.2,30.11,NNE,24,0.0,9.0,69,0.00,,,0.00,VWS V14.01,2013-10-16 06:37:00,
2013-10-16 01:42:00,53.9,44.0,30.11,NNE,24,2.0,13.0,69,0.00,,,0.00,VWS V14.01,2013-10-16 06:42:00,
2013-10-16 01:47:00,53.8,43.9,30.11,NE,36,5.0,13.0,69,0.00,,,0.00,VWS V14.01,2013-10-16 06:47:00,
2013-10-16 01:52:00,53.6,43.7,30.12,NE,45,5.0,13.0,69,0.00,,,0.00,VWS V14.01,2013-10-16 06:52:00,
2013-10-16 01:57:00,53.5,43.6,30.12,North,355,8.0,13.0,69,0.00,,,0.00,VWS V14.01,2013-10-16 06:57:00,
2013-10-16 02:00:00,53.4,43.5,30.11,NE,44,8.0,13.0,69,0.00,,,0.00,VWS V14.01,2013-10-16 07:00:00,
2013-10-16 02:02:00,53.4,43.5,30.11,NE,44,8.0,13.0,69,0.00,,,0.00,VWS V14.01,2013-10-16 07:02:00,
2013-10-16 02:07:00,53.3,43.8,30.12,NE,56,2.0,9.0,70,0.00,,,0.00,VWS V14.01,2013-10-16 07:07:00,
2013-10-16 02:12:00,53.2,43.7,30.12,North,355,0.0,9.0,70,0.00,,,0.00,VWS V14.01,2013-10-16 07:12:00,
2013-10-16 02:17:00,53.0,43.5,30.12,North,360,2.0,9.0,70,0.00,,,0.00,VWS V14.01,2013-10-16 07:17:00,
2013-10-16 02:22:00,52.9,43.4,30.12,NE,36,0.0,9.0,70,0.00,,,0.00,VWS V14.01,2013-10-16 07:22:00,
2013-10-16 02:27:00,52.7,43.6,30.12,NNE,24,0.0,9.0,71,0.00,,,0.00,VWS V14.01,2013-10-16 07:27:00,
2013-10-16 02:30:00,52.4,43.3,30.12,North,9,0.0,9.0,71,0.00,,,0.00,VWS V14.01,2013-10-16 07:30:00,
2013-10-16 02:32:00,52.4,43.3,30.12,North,9,0.0,0.0,71,0.00,,,0.00,VWS V14.01,2013-10-16 07:32:00,
2013-10-16 02:37:00,52.2,42.7,30.12,NW,326,4.0,11.0,70,0.00,,,0.00,VWS V14.01,2013-10-16 07:37:00,
2013-10-16 02:42:00,52.1,42.6,30.12,NNW,345,8.0,11.0,70,0.00,,,0.00,VWS V14.01,2013-10-16 07:42:00,
2013-10-16 02:47:00,51.9,42.8,30.12,North,355,8.0,11.0,71,0.00,,,0.00,VWS V14.01,2013-10-16 07:47:00,
2013-10-16 02:52:00,51.7,42.6,30.12,North,11,5.0,11.0,71,0.00,,,0.00,VWS V14.01,2013-10-16 07:52:00,
2013-10-16 02:57:00,51.6,42.5,30.12,North,5,4.0,11.0,71,0.00,,,0.00,VWS V14.01,2013-10-16 07:57:00,
2013-10-16 03:00:00,51.4,42.3,30.12,NE,43,5.0,11.0,71,0.00,,,0.00,VWS V14.01,2013-10-16 08:00:00,
2013-10-16 03:02:00,51.4,42.3,30.12,North,5,4.0,5.0,71,0.00,,,0.00,VWS V14.01,2013-10-16 08:02:00,
2013-10-16 03:07:00,51.2,42.1,30.12,NE,45,3.0,7.0,71,0.00,,,0.00,VWS V14.01,2013-10-16 08:07:00,
2013-10-16 03:12:00,51.0,41.9,30.11,North,360,3.0,10.0,71,0.00,,,0.00,VWS V14.01,2013-10-16 08:12:00,
2013-10-16 03:17:00,50.9,41.8,30.11,ENE,63,2.0,10.0,71,0.00,,,0.00,VWS V14.01,2013-10-16 08:17:00,
2013-10-16 03:22:00,50.8,42.1,30.11,NE,42,4.0,10.0,72,0.00,,,0.00,VWS V14.01,2013-10-16 08:22:00,
2013-10-16 03:27:00,50.6,41.9,30.11,NE,44,5.0,10.0,72,0.00,,,0.00,VWS V14.01,2013-10-16 08:27:00,
2013-10-16 03:30:00,50.4,41.7,30.11,NE,42,4.0,10.0,72,0.00,,,0.00,VWS V14.01,2013-10-16 08:30:00,
2013-10-16 03:32:00,50.5,41.8,30.11,NE,42,1.0,4.0,72,0.00,,,0.00,VWS V14.01,2013-10-16 08:32:00,
2013-10-16 03:37:00,50.3,42.0,30.11,NNE,26,4.0,7.0,73,0.00,,,0.00,VWS V14.01,2013-10-16 08:37:00,
2013-10-16 03:42:00,50.1,41.8,30.11,NE,36,0.0,8.0,73,0.00,,,0.00,VWS V14.01,2013-10-16 08:42:00,
2013-10-16 03:47:00,50.0,42.0,30.11,NE,35,1.0,8.0,74,0.00,,,0.00,VWS V14.01,2013-10-16 08:47:00,
2013-10-16 03:52:00,49.8,41.9,30.11,NE,35,0.0,8.0,74,0.00,,,0.00,VWS V14.01,2013-10-16 08:52:00,
2013-10-16 03:57:00,49.6,41.7,30.11,NE,43,5.0,8.0,74,0.00,,,0.00,VWS V14.01,2013-10-16 08:57:00,
2013-10-16 04:00:00,49.5,41.9,30.11,NNE,19,4.0,8.0,75,0.00,,,0.00,VWS V14.01,2013-10-16 09:00:00,
2013-10-16 04:02:00,49.5,41.9,30.11,NNE,19,1.0,4.0,75,0.00,,,0.00,VWS V14.01,2013-10-16 09:02:00,
2013-10-16 04:07:00,49.4,41.8,30.11,NNE,20,0.0,7.0,75,0.00,,,0.00,VWS V14.01,2013-10-16 09:07:00,
2013-10-16 04:12:00,49.2,41.6,30.11,NNE,20,0.0,8.0,75,0.00,,,0.00,VWS V14.01,2013-10-16 09:12:00,
2013-10-16 04:17:00,49.2,41.6,30.11,NNE,30,0.0,11.0,75,0.00,,,0.00,VWS V14.01,2013-10-16 09:17:00,
2013-10-16 04:22:00,49.1,41.5,30.11,NE,51,2.0,11.0,75,0.00,,,0.00,VWS V14.01,2013-10-16 09:22:00,
2013-10-16 04:27:00,49.1,41.9,30.11,NNE,14,2.0,11.0,76,0.00,,,0.00,VWS V14.01,2013-10-16 09:27:00,
2013-10-16 04:30:00,48.9,41.7,30.11,NNE,17,5.0,11.0,76,0.00,,,0.00,VWS V14.01,2013-10-16 09:30:00,
2013-10-16 04:32:00,48.9,41.7,30.11,North,360,0.0,5.0,76,0.00,,,0.00,VWS V14.01,2013-10-16 09:32:00,
2013-10-16 04:37:00,48.8,41.6,30.11,NE,42,0.0,5.0,76,0.00,,,0.00,VWS V14.01,2013-10-16 09:37:00,
2013-10-16 04:42:00,48.7,41.5,30.11,NE,53,7.0,7.0,76,0.00,,,0.00,VWS V14.01,2013-10-16 09:42:00,
2013-10-16 04:47:00,48.6,41.4,30.12,ENE,57,0.0,7.0,76,0.00,,,0.00,VWS V14.01,2013-10-16 09:47:00,
2013-10-16 04:52:00,48.4,41.2,30.12,NNW,344,0.0,7.0,76,0.00,,,0.00,VWS V14.01,2013-10-16 09:52:00,
2013-10-16 04:58:00,48.3,41.1,30.12,NNE,17,0.0,7.0,76,0.00,,,0.00,VWS V14.01,2013-10-16 09:58:00,
2013-10-16 05:00:00,48.2,41.0,30.12,NNE,17,0.0,7.0,76,0.00,,,0.00,VWS V14.01,2013-10-16 10:00:00,
2013-10-16 05:03:00,48.2,41.0,30.12,NNE,17,0.0,0.0,76,0.00,,,0.00,VWS V14.01,2013-10-16 10:03:00,
2013-10-16 05:08:00,48.1,41.2,30.12,NE,53,2.0,5.0,77,0.00,,,0.00,VWS V14.01,2013-10-16 10:08:00,
2013-10-16 05:13:00,48.0,41.2,30.12,NE,53,0.0,5.0,77,0.00,,,0.00,VWS V14.01,2013-10-16 10:13:00,
2013-10-16 05:18:00,47.8,41.0,30.12,NNW,331,0.0,5.0,77,0.00,,,0.00,VWS V14.01,2013-10-16 10:18:00,
2013-10-16 05:23:00,47.6,40.8,30.12,NNE,17,3.0,5.0,77,0.00,,,0.00,VWS V14.01,2013-10-16 10:23:00,
2013-10-16 05:28:00,47.5,40.7,30.12,North,5,0.0,5.0,77,0.00,,,0.00,VWS V14.01,2013-10-16 10:28:00,
2013-10-16 05:30:00,47.4,40.9,30.13,NNE,13,0.0,5.0,78,0.00,,,0.00,VWS V14.01,2013-10-16 10:30:00,
2013-10-16 05:33:00,47.4,40.9,30.13,North,360,4.0,4.0,78,0.00,,,0.00,VWS V14.01,2013-10-16 10:33:00,
2013-10-16 05:37:00,47.3,40.8,30.13,North,360,0.0,4.0,78,0.00,,,0.00,VWS V14.01,2013-10-16 10:37:00,
2013-10-16 05:43:00,47.2,40.7,30.13,NNE,26,0.0,8.0,78,0.00,,,0.00,VWS V14.01,2013-10-16 10:43:00,
2013-10-16 05:47:00,47.1,40.6,30.13,NNE,25,0.0,8.0,78,0.00,,,0.00,VWS V14.01,2013-10-16 10:47:00,
2013-10-16 05:53:00,47.0,40.5,30.13,NW,323,2.0,8.0,78,0.00,,,0.00,VWS V14.01,2013-10-16 10:53:00,
2013-10-16 05:58:00,46.9,40.4,30.13,NNE,30,0.0,8.0,78,0.00,,,0.00,VWS V14.01,2013-10-16 10:58:00,
2013-10-16 06:00:00,46.8,40.3,30.13,North,5,1.0,8.0,78,0.00,,,0.00,VWS V14.01,2013-10-16 11:00:00,
2013-10-16 06:03:00,46.8,40.3,30.14,North,5,0.0,1.0,78,0.00,,,0.00,VWS V14.01,2013-10-16 11:03:00,
2013-10-16 06:08:00,46.7,40.5,30.14,North,5,0.0,1.0,79,0.00,,,0.00,VWS V14.01,2013-10-16 11:08:00,
2013-10-16 06:13:00,46.6,40.5,30.13,North,5,4.0,4.0,79,0.00,,,0.00,VWS V14.01,2013-10-16 11:13:00,
2013-10-16 06:18:00,46.5,40.3,30.13,North,5,4.0,5.0,79,0.00,,,0.00,VWS V14.01,2013-10-16 11:18:00,
2013-10-16 06:23:00,46.4,40.6,30.13,North,5,0.0,5.0,80,0.00,,,0.00,VWS V14.01,2013-10-16 11:23:00,
2013-10-16 06:28:00,46.3,40.5,30.13,North,360,0.0,5.0,80,0.00,,,0.00,VWS V14.01,2013-10-16 11:28:00,
2013-10-16 06:30:00,46.1,40.3,30.14,NNW,329,0.0,5.0,80,0.00,,,0.00,VWS V14.01,2013-10-16 11:30:00,
2013-10-16 06:33:00,46.1,40.3,30.14,NNW,329,0.0,1.0,80,0.00,,,0.00,VWS V14.01,2013-10-16 11:33:00,
2013-10-16 06:38:00,45.9,40.4,30.14,NNW,329,0.0,1.0,81,0.00,,,0.00,VWS V14.01,2013-10-16 11:38:00,
2013-10-16 06:43:00,45.8,40.3,30.14,NNW,330,0.0,1.0,81,0.00,,,0.00,VWS V14.01,2013-10-16 11:43:00,
2013-10-16 06:48:00,45.6,40.4,30.14,NE,55,1.0,4.0,82,0.00,,,0.00,VWS V14.01,2013-10-16 11:48:00,
2013-10-16 06:53:00,45.5,40.3,30.14,NE,52,0.0,4.0,82,0.00,,,0.00,VWS V14.01,2013-10-16 11:53:00,
2013-10-16 06:58:00,45.5,40.3,30.14,NE,51,1.0,4.0,82,0.00,,,0.00,VWS V14.01,2013-10-16 11:58:00,
2013-10-16 07:00:00,45.5,40.7,30.14,NNE,14,0.0,4.0,83,0.00,,,0.00,VWS V14.01,2013-10-16 12:00:00,
2013-10-16 07:03:00,45.5,40.7,30.14,NNE,14,0.0,2.0,83,0.00,,,0.00,VWS V14.01,2013-10-16 12:03:00,
2013-10-16 07:08:00,45.5,40.7,30.14,NNE,14,0.0,2.0,83,0.00,,,0.00,VWS V14.01,2013-10-16 12:08:00,
2013-10-16 07:13:00,45.5,40.7,30.15,NNE,14,0.0,2.0,83,0.00,,,0.00,VWS V14.01,2013-10-16 12:13:00,
2013-10-16 07:18:00,45.5,40.7,30.15,NNE,14,0.0,2.0,83,0.00,,,0.00,VWS V14.01,2013-10-16 12:18:00,
2013-10-16 07:23:00,45.5,40.7,30.15,NNE,14,0.0,2.0,83,0.00,,,0.00,VWS V14.01,2013-10-16 12:23:00,
2013-10-16 07:28:00,45.4,40.5,30.15,NNE,14,0.0,2.0,83,0.00,,,0.00,VWS V14.01,2013-10-16 12:28:00,
2013-10-16 07:30:00,45.4,40.2,30.16,NNE,14,0.0,3.0,82,0.00,,,0.00,VWS V14.01,2013-10-16 12:30:00,
2013-10-16 07:33:00,45.4,40.2,30.16,NNE,14,0.0,0.0,82,0.00,,,0.00,VWS V14.01,2013-10-16 12:33:00,
2013-10-16 07:38:00,45.3,40.1,30.16,NNE,14,0.0,1.0,82,0.00,,,0.00,VWS V14.01,2013-10-16 12:38:00,
2013-10-16 07:43:00,45.2,40.0,30.16,North,5,0.0,2.0,82,0.00,,,0.00,VWS V14.01,2013-10-16 12:43:00,
2013-10-16 07:48:00,45.2,40.3,30.17,North,360,0.0,2.0,83,0.00,,,0.00,VWS V14.01,2013-10-16 12:48:00,
2013-10-16 07:53:00,45.1,40.2,30.17,North,360,0.0,2.0,83,0.00,,,0.00,VWS V14.01,2013-10-16 12:53:00,
2013-10-16 07:58:00,45.1,40.2,30.17,North,360,0.0,2.0,83,0.00,,,0.00,VWS V14.01,2013-10-16 12:58:00,
2013-10-16 08:00:00,45.1,40.3,30.17,North,5,0.0,2.0,83,0.00,,,0.00,VWS V14.01,2013-10-16 13:00:00,
2013-10-16 08:03:00,45.1,40.2,30.17,North,360,0.0,0.0,83,0.00,,,0.00,VWS V14.01,2013-10-16 13:03:00,
2013-10-16 08:08:00,45.1,40.6,30.17,NW,323,0.0,4.0,84,0.00,,,0.00,VWS V14.01,2013-10-16 13:08:00,
2013-10-16 08:13:00,45.1,40.6,30.17,NNW,331,0.0,4.0,84,0.00,,,0.00,VWS V14.01,2013-10-16 13:13:00,
2013-10-16 08:18:00,45.1,40.6,30.17,NNW,331,0.0,4.0,84,0.00,,,0.00,VWS V14.01,2013-10-16 13:18:00,
2013-10-16 08:23:00,45.1,40.6,30.17,NNW,327,0.0,4.0,84,0.00,,,0.00,VWS V14.01,2013-10-16 13:23:00,
2013-10-16 08:28:00,45.1,40.6,30.17,NNW,328,0.0,4.0,84,0.00,,,0.00,VWS V14.01,2013-10-16 13:28:00,
2013-10-16 08:30:00,45.2,40.7,30.18,NNE,22,0.0,4.0,84,0.00,,,0.00,VWS V14.01,2013-10-16 13:30:00,
2013-10-16 08:33:00,45.2,40.7,30.18,NNE,22,0.0,0.0,84,0.00,,,0.00,VWS V14.01,2013-10-16 13:33:00,
2013-10-16 08:38:00,45.3,40.8,30.18,NNW,338,0.0,3.0,84,0.00,,,0.00,VWS V14.01,2013-10-16 13:38:00,
2013-10-16 08:43:00,45.5,40.7,30.18,NW,325,1.0,5.0,83,0.00,,,0.00,VWS V14.01,2013-10-16 13:43:00,
2013-10-16 08:48:00,45.8,40.9,30.18,ENE,57,0.0,5.0,83,0.00,,,0.00,VWS V14.01,2013-10-16 13:48:00,
2013-10-16 08:53:00,46.5,41.3,30.18,NW,324,1.0,5.0,82,0.00,,,0.00,VWS V14.01,2013-10-16 13:53:00,
2013-10-16 08:58:00,47.2,41.4,30.18,NNE,32,2.0,8.0,80,0.00,,,0.00,VWS V14.01,2013-10-16 13:58:00,
2013-10-16 09:00:00,47.8,41.3,30.18,North,355,0.0,8.0,78,0.00,,,0.00,VWS V14.01,2013-10-16 14:00:00,
2013-10-16 09:03:00,48.0,41.5,30.18,NNE,15,0.0,6.0,78,0.00,,,0.00,VWS V14.01,2013-10-16 14:03:00,
2013-10-16 09:08:00,48.7,41.1,30.18,NNW,332,2.0,9.0,75,0.00,,,0.00,VWS V14.01,2013-10-16 14:08:00,
2013-10-16 09:13:00,48.9,41.0,30.18,North,355,0.0,9.0,74,0.00,,,0.00,VWS V14.01,2013-10-16 14:13:00,
2013-10-16 09:18:00,49.1,40.8,30.18,North,5,5.0,9.0,73,0.00,,,0.00,VWS V14.01,2013-10-16 14:18:00,
2013-10-16 09:23:00,49.2,40.6,30.18,NNE,22,5.0,10.0,72,0.00,,,0.00,VWS V14.01,2013-10-16 14:23:00,
2013-10-16 09:28:00,49.4,41.1,30.17,NNE,14,1.0,10.0,73,0.00,,,0.00,VWS V14.01,2013-10-16 14:28:00,
2013-10-16 09:30:00,49.5,40.9,30.17,ENE,60,7.0,10.0,72,0.00,,,0.00,VWS V14.01,2013-10-16 14:30:00,
2013-10-16 09:33:00,49.6,41.0,30.17,NNE,13,5.0,7.0,72,0.00,,,0.00,VWS V14.01,2013-10-16 14:33:00,
2013-10-16 09:38:00,49.6,40.6,30.17,NE,52,3.0,8.0,71,0.00,,,0.00,VWS V14.01,2013-10-16 14:38:00,
2013-10-16 09:43:00,50.0,41.0,30.17,NE,40,3.0,8.0,71,0.00,,,0.00,VWS V14.01,2013-10-16 14:43:00,
2013-10-16 09:48:00,50.4,41.0,30.17,NE,44,5.0,9.0,70,0.00,,,0.00,VWS V14.01,2013-10-16 14:48:00,
2013-10-16 09:53:00,50.8,41.4,30.17,NNE,32,5.0,9.0,70,0.00,,,0.00,VWS V14.01,2013-10-16 14:53:00,
2013-10-16 09:58:00,51.6,41.4,30.17,NNE,24,7.0,9.0,68,0.00,,,0.00,VWS V14.01,2013-10-16 14:58:00,
2013-10-16 10:00:00,51.9,41.7,30.17,North,5,8.0,10.0,68,0.00,,,0.00,VWS V14.01,2013-10-16 15:00:00,
2013-10-16 10:03:00,51.9,40.9,30.17,NNE,19,4.0,10.0,66,0.00,,,0.00,VWS V14.01,2013-10-16 15:03:00,
2013-10-16 10:08:00,52.1,41.1,30.17,North,355,5.0,10.0,66,0.00,,,0.00,VWS V14.01,2013-10-16 15:08:00,
2013-10-16 10:13:00,52.4,41.0,30.17,NE,34,5.0,10.0,65,0.00,,,0.00,VWS V14.01,2013-10-16 15:13:00,
2013-10-16 10:18:00,52.7,41.7,30.17,NNE,28,5.0,10.0,66,0.00,,,0.00,VWS V14.01,2013-10-16 15:18:00,
2013-10-16 10:23:00,53.4,42.7,30.17,ENE,63,5.0,10.0,67,0.00,,,0.00,VWS V14.01,2013-10-16 15:23:00,
2013-10-16 10:28:00,53.7,41.4,30.17,NE,53,0.0,10.0,63,0.00,,,0.00,VWS V14.01,2013-10-16 15:28:00,
2013-10-16 10:30:00,53.7,41.8,30.17,NNE,30,7.0,10.0,64,0.00,,,0.00,VWS V14.01,2013-10-16 15:30:00,
2013-10-16 10:33:00,53.7,41.8,30.17,NE,38,4.0,7.0,64,0.00,,,0.00,VWS V14.01,2013-10-16 15:33:00,
2013-10-16 10:38:00,53.6,41.7,30.17,NE,42,0.0,8.0,64,0.00,,,0.00,VWS V14.01,2013-10-16 15:38:00,
2013-10-16 10:43:00,53.7,41.8,30.17,NE,36,1.0,9.0,64,0.00,,,0.00,VWS V14.01,2013-10-16 15:43:00,
2013-10-16 10:48:00,53.8,41.5,30.17,NE,37,1.0,9.0,63,0.00,,,0.00,VWS V14.01,2013-10-16 15:48:00,
2013-10-16 10:53:00,54.3,42.4,30.16,NE,46,6.0,10.0,64,0.00,,,0.00,VWS V14.01,2013-10-16 15:53:00,
2013-10-16 10:58:00,54.4,42.1,30.16,North,360,2.0,10.0,63,0.00,,,0.00,VWS V14.01,2013-10-16 15:58:00,
2013-10-16 11:00:00,55.0,43.1,30.15,NNW,348,9.0,10.0,64,0.00,,,0.00,VWS V14.01,2013-10-16 16:00:00,
2013-10-16 11:03:00,55.2,43.2,30.16,NE,40,0.0,9.0,64,0.00,,,0.00,VWS V14.01,2013-10-16 16:03:00,
2013-10-16 11:08:00,55.9,42.7,30.15,East,101,8.0,9.0,61,0.00,,,0.00,VWS V14.01,2013-10-16 16:08:00,
2013-10-16 11:13:00,55.4,41.8,30.15,NE,35,5.0,9.0,60,0.00,,,0.00,VWS V14.01,2013-10-16 16:13:00,
2013-10-16 11:18:00,54.8,41.6,30.15,NNE,15,1.0,9.0,61,0.00,,,0.00,VWS V14.01,2013-10-16 16:18:00,
2013-10-16 11:23:00,54.6,41.9,30.15,NW,324,4.0,9.0,62,0.00,,,0.00,VWS V14.01,2013-10-16 16:23:00,
2013-10-16 11:28:00,55.3,42.5,30.15,North,360,5.0,9.0,62,0.00,,,0.00,VWS V14.01,2013-10-16 16:28:00,
2013-10-16 11:30:00,54.8,42.0,30.15,North,11,0.0,9.0,62,0.00,,,0.00,VWS V14.01,2013-10-16 16:30:00,
2013-10-16 11:33:00,54.7,42.4,30.15,NNE,12,5.0,5.0,63,0.00,,,0.00,VWS V14.01,2013-10-16 16:33:00,
2013-10-16 11:38:00,54.8,42.9,30.15,NNE,28,7.0,7.0,64,0.00,,,0.00,VWS V14.01,2013-10-16 16:38:00,
2013-10-16 11:43:00,55.2,42.4,30.15,NNE,15,4.0,10.0,62,0.00,,,0.00,VWS V14.01,2013-10-16 16:43:00,
2013-10-16 11:48:00,55.0,42.2,30.14,NE,49,5.0,10.0,62,0.00,,,0.00,VWS V14.01,2013-10-16 16:48:00,
2013-10-16 11:53:00,54.8,42.0,30.15,North,360,5.0,10.0,62,0.00,,,0.00,VWS V14.01,2013-10-16 16:53:00,
2013-10-16 11:58:00,55.1,41.9,30.14,NNW,338,4.0,10.0,61,0.00,,,0.00,VWS V14.01,2013-10-16 16:58:00,
2013-10-16 12:00:00,55.2,42.4,30.14,North,355,0.0,10.0,62,0.00,,,0.00,VWS V14.01,2013-10-16 17:00:00,
2013-10-16 12:03:00,55.2,42.4,30.14,North,349,4.0,6.0,62,0.00,,,0.00,VWS V14.01,2013-10-16 17:03:00,
2013-10-16 12:08:00,55.2,43.2,30.14,NNW,332,3.0,10.0,64,0.00,,,0.00,VWS V14.01,2013-10-16 17:08:00,
2013-10-16 12:13:00,55.5,42.7,30.13,WNW,294,5.0,10.0,62,0.00,,,0.00,VWS V14.01,2013-10-16 17:13:00,
2013-10-16 12:18:00,55.5,42.3,30.13,NNE,12,3.0,11.0,61,0.00,,,0.00,VWS V14.01,2013-10-16 17:18:00,
2013-10-16 12:23:00,55.8,43.4,30.13,NNE,19,7.0,11.0,63,0.00,,,0.00,VWS V14.01,2013-10-16 17:23:00,
2013-10-16 12:28:00,56.2,43.4,30.13,NE,40,4.0,11.0,62,0.00,,,0.00,VWS V14.01,2013-10-16 17:28:00,
2013-10-16 12:30:00,56.9,44.5,30.12,North,355,3.0,11.0,63,0.00,,,0.00,VWS V14.01,2013-10-16 17:30:00,
2013-10-16 12:33:00,57.1,43.8,30.12,NW,323,3.0,5.0,61,0.00,,,0.00,VWS V14.01,2013-10-16 17:33:00,
2013-10-16 12:38:00,57.4,44.1,30.12,NNE,28,1.0,7.0,61,0.00,,,0.00,VWS V14.01,2013-10-16 17:38:00,
2013-10-16 12:43:00,57.1,42.9,30.12,NNW,332,0.0,7.0,59,0.00,,,0.00,VWS V14.01,2013-10-16 17:43:00,
2013-10-16 12:48:00,57.3,43.1,30.12,North,355,0.0,7.0,59,0.00,,,0.00,VWS V14.01,2013-10-16 17:48:00,
2013-10-16 12:53:00,57.4,44.9,30.11,NE,44,2.0,7.0,63,0.00,,,0.00,VWS V14.01,2013-10-16 17:53:00,
2013-10-16 12:58:00,58.2,43.5,30.11,NE,45,4.0,9.0,58,0.00,,,0.00,VWS V14.01,2013-10-16 17:58:00,
2013-10-16 13:00:00,57.6,43.0,30.11,NW,322,4.0,9.0,58,0.00,,,0.00,VWS V14.01,2013-10-16 18:00:00,
2013-10-16 13:03:00,57.5,42.8,30.11,NW,317,0.0,4.0,58,0.00,,,0.00,VWS V14.01,2013-10-16 18:03:00,
2013-10-16 13:08:00,57.4,43.2,30.11,North,355,2.0,8.0,59,0.00,,,0.00,VWS V14.01,2013-10-16 18:08:00,
2013-10-16 13:13:00,58.0,43.3,30.11,WNW,292,6.0,9.0,58,0.00,,,0.00,VWS V14.01,2013-10-16 18:13:00,
2013-10-16 13:18:00,57.7,43.0,30.10,North,355,0.0,9.0,58,0.00,,,0.00,VWS V14.01,2013-10-16 18:18:00,
2013-10-16 13:23:00,57.8,44.0,30.10,NE,35,4.0,9.0,60,0.00,,,0.00,VWS V14.01,2013-10-16 18:23:00,
2013-10-16 13:27:00,58.0,44.2,30.09,North,349,5.0,10.0,60,0.00,,,0.00,VWS V14.01,2013-10-16 18:27:00,
2013-10-16 13:30:00,58.5,45.1,30.09,North,5,0.0,10.0,61,0.00,,,0.00,VWS V14.01,2013-10-16 18:30:00,
2013-10-16 13:32:00,58.6,45.2,30.09,ENE,69,2.0,2.0,61,0.00,,,0.00,VWS V14.01,2013-10-16 18:32:00,
2013-10-16 13:37:00,59.0,44.3,30.09,NNE,29,2.0,7.0,58,0.00,,,0.00,VWS V14.01,2013-10-16 18:37:00,
2013-10-16 13:42:00,59.0,43.8,30.09,North,11,6.0,12.0,57,0.00,,,0.00,VWS V14.01,2013-10-16 18:42:00,
2013-10-16 13:47:00,58.4,43.2,30.08,NW,307,1.0,12.0,57,0.00,,,0.00,VWS V14.01,2013-10-16 18:47:00,
2013-10-16 13:52:00,58.4,43.7,30.08,NNE,14,0.0,12.0,58,0.00,,,0.00,VWS V14.01,2013-10-16 18:52:00,
2013-10-16 13:57:00,58.2,43.1,30.08,NNE,13,0.0,12.0,57,0.00,,,0.00,VWS V14.01,2013-10-16 18:57:00,
2013-10-16 14:00:00,58.6,43.4,30.07,NE,37,0.0,12.0,57,0.00,,,0.00,VWS V14.01,2013-10-16 19:00:00,
2013-10-16 14:03:00,58.7,43.5,30.07,NNE,15,2.0,4.0,57,0.00,,,0.00,VWS V14.01,2013-10-16 19:03:00,
2013-10-16 14:08:00,59.1,43.9,30.07,NNW,339,8.0,9.0,57,0.00,,,0.00,VWS V14.01,2013-10-16 19:08:00,
2013-10-16 14:13:00,59.1,43.9,30.08,NE,40,1.0,9.0,57,0.00,,,0.00,VWS V14.01,2013-10-16 19:13:00,
2013-10-16 14:18:00,59.5,44.7,30.08,ENE,57,2.0,9.0,58,0.00,,,0.00,VWS V14.01,2013-10-16 19:18:00,
2013-10-16 14:23:00,59.4,45.1,30.07,WNW,300,8.0,11.0,59,0.00,,,0.00,VWS V14.01,2013-10-16 19:23:00,
2013-10-16 14:28:00,59.5,44.7,30.07,NNW,341,0.0,11.0,58,0.00,,,0.00,VWS V14.01,2013-10-16 19:28:00,
2013-10-16 14:30:00,59.7,44.5,30.07,North,9,0.0,11.0,57,0.00,,,0.00,VWS V14.01,2013-10-16 19:30:00,
2013-10-16 14:33:00,59.7,44.5,30.07,North,10,0.0,0.0,57,0.00,,,0.00,VWS V14.01,2013-10-16 19:33:00,
2013-10-16 14:38:00,59.7,44.0,30.06,NW,323,1.0,10.0,56,0.00,,,0.00,VWS V14.01,2013-10-16 19:38:00,
2013-10-16 14:43:00,59.6,43.9,30.07,NW,304,3.0,10.0,56,0.00,,,0.00,VWS V14.01,2013-10-16 19:43:00,
2013-10-16 14:48:00,59.9,44.2,30.07,NE,36,7.0,10.0,56,0.00,,,0.00,VWS V14.01,2013-10-16 19:48:00,
2013-10-16 14:53:00,59.9,44.2,30.07,NNE,29,0.0,10.0,56,0.00,,,0.00,VWS V14.01,2013-10-16 19:53:00,
2013-10-16 14:58:00,60.0,44.3,30.07,NNE,17,4.0,10.0,56,0.00,,,0.00,VWS V14.01,2013-10-16 19:58:00,
2013-10-16 15:00:00,59.8,43.6,30.07,NNE,13,2.0,11.0,55,0.00,,,0.00,VWS V14.01,2013-10-16 20:00:00,
2013-10-16 15:03:00,59.8,43.6,30.08,NNE,13,0.0,2.0,55,0.00,,,0.00,VWS V14.01,2013-10-16 20:03:00,
2013-10-16 15:08:00,59.8,43.6,30.08,NNE,22,0.0,6.0,55,0.00,,,0.00,VWS V14.01,2013-10-16 20:08:00,
2013-10-16 15:13:00,59.7,44.5,30.08,NE,36,0.0,6.0,57,0.00,,,0.00,VWS V14.01,2013-10-16 20:13:00,
2013-10-16 15:18:00,60.0,44.3,30.07,North,5,0.0,6.0,56,0.00,,,0.00,VWS V14.01,2013-10-16 20:18:00,
2013-10-16 15:23:00,59.5,43.8,30.07,NNE,25,0.0,6.0,56,0.00,,,0.00,VWS V14.01,2013-10-16 20:23:00,
2013-10-16 15:28:00,60.1,44.4,30.07,North,360,5.0,7.0,56,0.00,,,0.00,VWS V14.01,2013-10-16 20:28:00,
2013-10-16 15:30:00,60.0,44.3,30.07,North,360,0.0,7.0,56,0.00,,,0.00,VWS V14.01,2013-10-16 20:30:00,
2013-10-16 15:33:00,60.0,44.3,30.07,North,360,0.0,0.0,56,0.00,,,0.00,VWS V14.01,2013-10-16 20:33:00,
2013-10-16 15:38:00,60.1,44.8,30.07,NW,317,4.0,5.0,57,0.00,,,0.00,VWS V14.01,2013-10-16 20:38:00,
2013-10-16 15:43:00,60.2,44.9,30.07,North,5,0.0,5.0,57,0.00,,,0.00,VWS V14.01,2013-10-16 20:43:00,
2013-10-16 15:48:00,59.9,44.7,30.07,NE,38,0.0,5.0,57,0.00,,,0.00,VWS V14.01,2013-10-16 20:48:00,
2013-10-16 15:53:00,59.9,44.2,30.07,NNE,21,0.0,7.0,56,0.00,,,0.00,VWS V14.01,2013-10-16 20:53:00,
2013-10-16 15:58:00,60.1,44.8,30.06,NNE,21,0.0,7.0,57,0.00,,,0.00,VWS V14.01,2013-10-16 20:58:00,
2013-10-16 16:00:00,60.3,44.6,30.06,North,355,2.0,7.0,56,0.00,,,0.00,VWS V14.01,2013-10-16 21:00:00,
2013-10-16 16:03:00,60.2,44.9,30.06,NE,46,5.0,5.0,57,0.00,,,0.00,VWS V14.01,2013-10-16 21:03:00,
2013-10-16 16:08:00,60.2,44.0,30.06,North,360,0.0,6.0,55,0.00,,,0.00,VWS V14.01,2013-10-16 21:08:00,
2013-10-16 16:13:00,60.5,44.3,30.06,WNW,298,5.0,7.0,55,0.00,,,0.00,VWS V14.01,2013-10-16 21:13:00,
2013-10-16 16:18:00,60.5,44.7,30.06,North,5,0.0,7.0,56,0.00,,,0.00,VWS V14.01,2013-10-16 21:18:00,
2013-10-16 16:23:00,60.2,44.5,30.06,NE,42,0.0,7.0,56,0.00,,,0.00,VWS V14.01,2013-10-16 21:23:00,
2013-10-16 16:28:00,60.5,45.2,30.06,NNW,345,1.0,7.0,57,0.00,,,0.00,VWS V14.01,2013-10-16 21:28:00,
2013-10-16 16:30:00,61.0,44.7,30.06,NNE,26,2.0,7.0,55,0.00,,,0.00,VWS V14.01,2013-10-16 21:30:00,
2013-10-16 16:33:00,61.0,44.7,30.06,NNE,29,3.0,5.0,55,0.00,,,0.00,VWS V14.01,2013-10-16 21:33:00,
2013-10-16 16:38:00,60.4,45.1,30.06,NNW,327,5.0,5.0,57,0.00,,,0.00,VWS V14.01,2013-10-16 21:38:00,
2013-10-16 16:43:00,60.2,44.9,30.06,NNE,20,1.0,5.0,57,0.00,,,0.00,VWS V14.01,2013-10-16 21:43:00,
2013-10-16 16:48:00,60.2,45.4,30.06,NNE,18,0.0,5.0,58,0.00,,,0.00,VWS V14.01,2013-10-16 21:48:00,
2013-10-16 16:53:00,60.0,45.2,30.06,NNW,334,0.0,6.0,58,0.00,,,0.00,VWS V14.01,2013-10-16 21:53:00,
2013-10-16 16:58:00,59.6,44.8,30.06,NW,304,1.0,6.0,58,0.00,,,0.00,VWS V14.01,2013-10-16 21:58:00,
2013-10-16 17:00:00,59.2,44.9,30.06,NW,322,1.0,6.0,59,0.00,,,0.00,VWS V14.01,2013-10-16 22:00:00,
2013-10-16 17:03:00,59.2,44.9,30.06,NNE,21,0.0,1.0,59,0.00,,,0.00,VWS V14.01,2013-10-16 22:03:00,
2013-10-16 17:08:00,59.0,44.7,30.06,NE,36,1.0,5.0,59,0.00,,,0.00,VWS V14.01,2013-10-16 22:08:00,
2013-10-16 17:13:00,59.0,44.3,30.06,North,9,1.0,8.0,58,0.00,,,0.00,VWS V14.01,2013-10-16 22:13:00,
2013-10-16 17:18:00,59.0,44.7,30.06,NNW,345,0.0,8.0,59,0.00,,,0.00,VWS V14.01,2013-10-16 22:18:00,
2013-10-16 17:23:00,58.9,44.2,30.06,NNW,344,0.0,8.0,58,0.00,,,0.00,VWS V14.01,2013-10-16 22:23:00,
2013-10-16 17:28:00,58.7,44.0,30.06,NW,326,0.0,9.0,58,0.00,,,0.00,VWS V14.01,2013-10-16 22:28:00,
2013-10-16 17:30:00,58.6,44.3,30.06,NW,313,0.0,9.0,59,0.00,,,0.00,VWS V14.01,2013-10-16 22:30:00,
2013-10-16 17:33:00,58.6,44.3,30.06,NW,313,0.0,0.0,59,0.00,,,0.00,VWS V14.01,2013-10-16 22:33:00,
2013-10-16 17:38:00,58.5,44.2,30.06,NNE,13,0.0,10.0,59,0.00,,,0.00,VWS V14.01,2013-10-16 22:38:00,
2013-10-16 17:43:00,58.4,44.6,30.06,NNW,331,3.0,10.0,60,0.00,,,0.00,VWS V14.01,2013-10-16 22:43:00,
2013-10-16 17:48:00,58.2,44.8,30.06,NNW,333,3.0,10.0,61,0.00,,,0.00,VWS V14.01,2013-10-16 22:48:00,
2013-10-16 17:53:00,58.1,44.7,30.06,NNW,338,0.0,10.0,61,0.00,,,0.00,VWS V14.01,2013-10-16 22:53:00,
2013-10-16 17:58:00,58.0,45.1,30.06,North,355,10.0,10.0,62,0.00,,,0.00,VWS V14.01,2013-10-16 22:58:00,
2013-10-16 18:00:00,57.8,44.0,30.06,NE,51,0.0,10.0,60,0.00,,,0.00,VWS V14.01,2013-10-16 23:00:00,
2013-10-16 18:03:00,57.8,44.0,30.06,WNW,292,3.0,6.0,60,0.00,,,0.00,VWS V14.01,2013-10-16 23:03:00,
2013-10-16 18:08:00,57.7,43.9,30.06,NNE,18,0.0,8.0,60,0.00,,,0.00,VWS V14.01,2013-10-16 23:08:00,
2013-10-16 18:13:00,57.5,43.7,30.07,NNW,338,4.0,10.0,60,0.00,,,0.00,VWS V14.01,2013-10-16 23:13:00,
2013-10-16 18:18:00,57.4,44.1,30.07,NW,306,4.0,10.0,61,0.00,,,0.00,VWS V14.01,2013-10-16 23:18:00,
2013-10-16 18:23:00,57.1,44.6,30.07,NW,318,1.0,10.0,63,0.00,,,0.00,VWS V14.01,2013-10-16 23:23:00,
2013-10-16 18:28:00,56.8,44.8,30.07,North,5,0.0,10.0,64,0.00,,,0.00,VWS V14.01,2013-10-16 23:28:00,
2013-10-16 18:30:00,56.6,44.6,30.07,North,360,1.0,10.0,64,0.00,,,0.00,VWS V14.01,2013-10-16 23:30:00,
2013-10-16 18:33:00,56.6,44.6,30.07,WNW,298,1.0,5.0,64,0.00,,,0.00,VWS V14.01,2013-10-16 23:33:00,
2013-10-16 18:38:00,56.3,44.7,30.07,NNW,335,10.0,11.0,65,0.00,,,0.00,VWS V14.01,2013-10-16 23:38:00,
2013-10-16 18:43:00,56.0,44.4,30.07,West,275,8.0,11.0,65,0.00,,,0.00,VWS V14.01,2013-10-16 23:43:00,
2013-10-16 18:48:00,55.7,44.5,30.08,North,350,1.0,11.0,66,0.00,,,0.00,VWS V14.01,2013-10-16 23:48:00,
2013-10-16 18:53:00,55.3,44.2,30.08,North,5,6.0,11.0,66,0.00,,,0.00,VWS V14.01,2013-10-16 23:53:00,
2013-10-16 18:58:00,54.9,43.8,30.08,NNE,13,0.0,13.0,66,0.00,,,0.00,VWS V14.01,2013-10-16 23:58:00,
2013-10-16 19:00:00,54.6,43.5,30.08,NNE,22,4.0,13.0,66,0.00,,,0.00,VWS V14.01,2013-10-17 00:00:00,
2013-10-16 19:03:00,54.6,43.5,30.08,North,350,5.0,5.0,66,0.00,,,0.00,VWS V14.01,2013-10-17 00:03:00,
2013-10-16 19:08:00,54.3,43.6,30.08,NNW,348,2.0,9.0,67,0.00,,,0.00,VWS V14.01,2013-10-17 00:08:00,
2013-10-16 19:13:00,54.0,43.7,30.08,NNE,16,5.0,9.0,68,0.00,,,0.00,VWS V14.01,2013-10-17 00:13:00,
2013-10-16 19:18:00,53.7,43.8,30.09,NNW,344,1.0,12.0,69,0.00,,,0.00,VWS V14.01,2013-10-17 00:18:00,
2013-10-16 19:23:00,53.5,43.6,30.09,North,355,0.0,12.0,69,0.00,,,0.00,VWS V14.01,2013-10-17 00:23:00,
2013-10-16 19:28:00,53.3,43.4,30.09,WNW,290,4.0,12.0,69,0.00,,,0.00,VWS V14.01,2013-10-17 00:28:00,
2013-10-16 19:30:00,53.2,43.3,30.08,NNE,21,4.0,12.0,69,0.00,,,0.00,VWS V14.01,2013-10-17 00:30:00,
2013-10-16 19:33:00,53.2,43.7,30.08,NW,313,0.0,4.0,70,0.00,,,0.00,VWS V14.01,2013-10-17 00:33:00,
2013-10-16 19:38:00,53.1,43.2,30.08,North,5,0.0,9.0,69,0.00,,,0.00,VWS V14.01,2013-10-17 00:38:00,
2013-10-16 19:43:00,52.9,43.4,30.08,NNW,339,0.0,9.0,70,0.00,,,0.00,VWS V14.01,2013-10-17 00:43:00,
2013-10-16 19:48:00,52.8,43.7,30.08,NNE,15,1.0,9.0,71,0.00,,,0.00,VWS V14.01,2013-10-17 00:48:00,
2013-10-16 19:53:00,52.7,43.6,30.09,NNE,15,0.0,9.0,71,0.00,,,0.00,VWS V14.01,2013-10-17 00:53:00,
2013-10-16 19:58:00,52.6,43.8,30.09,NNW,346,0.0,9.0,72,0.00,,,0.00,VWS V14.01,2013-10-17 00:58:00,
2013-10-16 20:00:00,52.5,43.8,30.09,North,9,3.0,9.0,72,0.00,,,0.00,VWS V14.01,2013-10-17 01:00:00,
2013-10-16 20:03:00,52.5,44.1,30.09,North,9,0.0,3.0,73,0.00,,,0.00,VWS V14.01,2013-10-17 01:03:00,
2013-10-16 20:08:00,52.4,44.0,30.09,North,350,1.0,5.0,73,0.00,,,0.00,VWS V14.01,2013-10-17 01:08:00,
2013-10-16 20:13:00,52.3,43.9,30.09,North,351,0.0,5.0,73,0.00,,,0.00,VWS V14.01,2013-10-17 01:13:00,
2013-10-16 20:18:00,52.2,43.8,30.09,NW,325,0.0,5.0,73,0.00,,,0.00,VWS V14.01,2013-10-17 01:18:00,
2013-10-16 20:23:00,52.2,44.2,30.08,North,360,0.0,5.0,74,0.00,,,0.00,VWS V14.01,2013-10-17 01:23:00,
2013-10-16 20:28:00,52.1,44.1,30.08,North,360,0.0,5.0,74,0.00,,,0.00,VWS V14.01,2013-10-17 01:28:00,
2013-10-16 20:30:00,52.0,44.0,30.08,North,360,0.0,5.0,74,0.00,,,0.00,VWS V14.01,2013-10-17 01:30:00,
2013-10-16 20:33:00,52.0,44.3,30.08,North,360,0.0,0.0,75,0.00,,,0.00,VWS V14.01,2013-10-17 01:33:00,
2013-10-16 20:38:00,51.9,44.2,30.08,North,360,0.0,0.0,75,0.00,,,0.00,VWS V14.01,2013-10-17 01:38:00,
2013-10-16 20:43:00,51.9,44.6,30.08,North,360,0.0,4.0,76,0.00,,,0.00,VWS V14.01,2013-10-17 01:43:00,
2013-10-16 20:48:00,51.8,44.5,30.08,North,360,0.0,4.0,76,0.00,,,0.00,VWS V14.01,2013-10-17 01:48:00,
2013-10-16 20:53:00,51.7,44.7,30.08,North,360,0.0,4.0,77,0.00,,,0.00,VWS V14.01,2013-10-17 01:53:00,
2013-10-16 20:58:00,51.7,45.1,30.08,North,360,0.0,4.0,78,0.00,,,0.00,VWS V14.01,2013-10-17 01:58:00,
2013-10-16 21:00:00,51.5,45.2,30.07,North,360,0.0,4.0,79,0.00,,,0.00,VWS V14.01,2013-10-17 02:00:00,
2013-10-16 21:03:00,51.5,45.2,30.08,North,360,0.0,0.0,79,0.00,,,0.00,VWS V14.01,2013-10-17 02:03:00,
2013-10-16 21:08:00,51.4,45.1,30.08,North,360,0.0,1.0,79,0.00,,,0.00,VWS V14.01,2013-10-17 02:08:00,
2013-10-16 21:13:00,51.2,44.9,30.08,North,360,0.0,1.0,79,0.00,,,0.00,VWS V14.01,2013-10-17 02:13:00,
2013-10-16 21:18:00,51.0,44.7,30.08,North,360,0.0,1.0,79,0.00,,,0.00,VWS V14.01,2013-10-17 02:18:00,
2013-10-16 21:23:00,50.8,44.9,30.08,North,360,0.0,1.0,80,0.00,,,0.00,VWS V14.01,2013-10-17 02:23:00,
2013-10-16 21:28:00,50.6,44.7,30.08,North,360,0.0,1.0,80,0.00,,,0.00,VWS V14.01,2013-10-17 02:28:00,
2013-10-16 21:30:00,50.5,44.6,30.08,North,360,0.0,1.0,80,0.00,,,0.00,VWS V14.01,2013-10-17 02:30:00,
2013-10-16 21:33:00,50.5,44.2,30.08,North,360,0.0,0.0,79,0.00,,,0.00,VWS V14.01,2013-10-17 02:33:00,
2013-10-16 21:38:00,50.4,44.1,30.09,North,360,0.0,0.0,79,0.00,,,0.00,VWS V14.01,2013-10-17 02:38:00,
2013-10-16 21:43:00,50.3,44.4,30.09,North,360,0.0,1.0,80,0.00,,,0.00,VWS V14.01,2013-10-17 02:43:00,
2013-10-16 21:48:00,50.2,44.3,30.09,North,360,0.0,1.0,80,0.00,,,0.00,VWS V14.01,2013-10-17 02:48:00,
2013-10-16 21:53:00,50.1,44.2,30.09,North,360,0.0,1.0,80,0.00,,,0.00,VWS V14.01,2013-10-17 02:53:00,
2013-10-16 21:58:00,50.1,44.5,30.09,North,360,0.0,1.0,81,0.00,,,0.00,VWS V14.01,2013-10-17 02:58:00,
2013-10-16 22:00:00,50.1,44.5,30.09,North,360,0.0,1.0,81,0.00,,,0.00,VWS V14.01,2013-10-17 03:00:00,
2013-10-16 22:03:00,50.0,44.4,30.09,North,360,0.0,0.0,81,0.00,,,0.00,VWS V14.01,2013-10-17 03:03:00,
2013-10-16 22:08:00,50.0,44.4,30.09,North,360,0.0,0.0,81,0.00,,,0.00,VWS V14.01,2013-10-17 03:08:00,
2013-10-16 22:13:00,50.0,44.7,30.09,North,360,0.0,0.0,82,0.00,,,0.00,VWS V14.01,2013-10-17 03:13:00,
2013-10-16 22:18:00,49.9,44.6,30.09,North,360,0.0,0.0,82,0.00,,,0.00,VWS V14.01,2013-10-17 03:18:00,
2013-10-16 22:23:00,49.9,44.6,30.09,North,360,0.0,1.0,82,0.00,,,0.00,VWS V14.01,2013-10-17 03:23:00,
2013-10-16 22:28:00,49.8,44.5,30.09,North,355,0.0,2.0,82,0.00,,,0.00,VWS V14.01,2013-10-17 03:28:00,
2013-10-16 22:30:00,49.8,44.8,30.09,North,355,0.0,2.0,83,0.00,,,0.00,VWS V14.01,2013-10-17 03:30:00,
2013-10-16 22:33:00,49.7,44.8,30.09,North,355,0.0,0.0,83,0.00,,,0.00,VWS V14.01,2013-10-17 03:33:00,
2013-10-16 22:38:00,49.7,44.8,30.09,North,355,0.0,0.0,83,0.00,,,0.00,VWS V14.01,2013-10-17 03:38:00,
2013-10-16 22:43:00,49.6,44.7,30.09,East,93,0.0,2.0,83,0.00,,,0.00,VWS V14.01,2013-10-17 03:43:00,
2013-10-16 22:48:00,49.5,44.9,30.09,East,93,0.0,2.0,84,0.00,,,0.00,VWS V14.01,2013-10-17 03:48:00,
2013-10-16 22:53:00,49.4,44.8,30.09,East,92,0.0,2.0,84,0.00,,,0.00,VWS V14.01,2013-10-17 03:53:00,
2013-10-16 22:58:00,49.3,44.7,30.08,East,93,0.0,2.0,84,0.00,,,0.00,VWS V14.01,2013-10-17 03:58:00,
2013-10-16 23:00:00,49.2,44.6,30.08,East,93,0.0,2.0,84,0.00,,,0.00,VWS V14.01,2013-10-17 04:00:00,
2013-10-16 23:01:00,49.3,44.7,30.08,East,93,0.0,2.0,84,0.00,,,0.00,VWS V14.01,2013-10-17 04:01:00,
2013-10-16 23:02:00,49.2,44.6,30.08,East,92,0.0,2.0,84,0.00,,,0.00,VWS V14.01,2013-10-17 04:02:00,
2013-10-16 23:07:00,49.2,44.6,30.08,East,93,0.0,0.0,84,0.00,,,0.00,VWS V14.01,2013-10-17 04:07:00,
2013-10-16 23:12:00,49.0,44.4,30.08,East,93,0.0,0.0,84,0.00,,,0.00,VWS V14.01,2013-10-17 04:12:00,
2013-10-16 23:17:00,48.9,44.3,30.08,East,92,0.0,0.0,84,0.00,,,0.00,VWS V14.01,2013-10-17 04:17:00,
2013-10-16 23:22:00,48.7,44.1,30.08,East,93,0.0,0.0,84,0.00,,,0.00,VWS V14.01,2013-10-17 04:22:00,
2013-10-16 23:27:00,48.6,44.3,30.08,East,93,0.0,0.0,85,0.00,,,0.00,VWS V14.01,2013-10-17 04:27:00,
2013-10-16 23:30:00,48.4,44.1,30.08,East,92,0.0,0.0,85,0.00,,,0.00,VWS V14.01,2013-10-17 04:30:00,
2013-10-16 23:32:00,48.4,44.1,30.08,East,93,0.0,0.0,85,0.00,,,0.00,VWS V14.01,2013-10-17 04:32:00,
2013-10-16 23:37:00,48.3,44.0,30.08,East,86,0.0,1.0,85,0.00,,,0.00,VWS V14.01,2013-10-17 04:37:00,
2013-10-16 23:42:00,48.1,44.1,30.08,East,86,0.0,1.0,86,0.00,,,0.00,VWS V14.01,2013-10-17 04:42:00,
2013-10-16 23:47:00,47.9,43.9,30.08,East,86,0.0,1.0,86,0.00,,,0.00,VWS V14.01,2013-10-17 04:47:00,
2013-10-16 23:52:00,47.8,43.8,30.08,East,86,0.0,1.0,86,0.00,,,0.00,VWS V14.01,2013-10-17 04:52:00,
2013-10-16 23:57:00,47.6,43.6,30.08,East,86,0.0,1.0,86,0.00,,,0.00,VWS V14.01,2013-10-17 04:57:00,